Location: Zapote
(9.9191°N, 84.0597°W)
Time: 14:50:25
(UTC-06:00)

Courier 1B Rocket - Pass Details

Date: 08 March 2021
Orbit: 920 x 1202 km, 28.2° (Epoch: 11 April)

Event Time Altitude Azimuth Distance (km) Brightness Sun altitude
Rises 20:04:51 0° 288° (WNW) 4,060 9.2 -34.7°
Reaches altitude 10° 20:07:47 10° 283° (WNW) 3,114 8.4 -35.5°
Enters shadow 20:15:00 48° 216° (SW) 1,525 6.0 -37.2°
